Flag for Russia Weather past 2 weeks in Surgut, Russia

30 °F

Snow flurries. Partly cloudy.

Feels Like: 19 °F
Forecast: 32 / 36 °F
Wind: 15 mph from Northwest

Location: Surgut Airport

Current Time: Oct 5, 2015 at 12:40:28 AM

Latest Report: Oct 5, 2015 at 12:00 AM

Visibility: 2 mi

Pressure: 29.24 "Hg

Humidity: 93%

Dew point: 28 °F

Location of SurgutLocation

Historic Weather in Surgut — Graph


Surgut temperature yesterday

Maximum temperature yesterday: 39 °F (at 12:00 AM)
Minimum temperature yesterday: 30 °F (at 10:00 PM)
Average temperature yesterday: 36 °F

Past Weeks' High & Low Weather Summary

High52 °F (Sep 27, 1:00 PM)100% (Sep 20, 4:00 PM)30.45 "Hg (Sep 20, 4:00 PM)
Low27 °F (Sep 26, 1:00 AM)39% (Sep 25, 3:00 PM)28.94 "Hg (Oct 4, 2:00 AM)
Average38 °F83%29.94 "Hg
* Reported Sep 19 11:00 PM — Oct 4 11:30 PM, Surgut, Weather by CustomWeather, © 2015

Note: Actual official high and low records may vary slightly from our data, if they occured in-between our weather recording intervals... More about our weather records


Surgut weather history for previous 24 hours

Time TempWeatherWind HumidityBarometerVisibility
11:30 PM
Sun, Oct 4
30 °FSnow flurries. Partly cloudy.13 mph93%29.24 "Hg2 mi
11:00 PM30 °FSnow flurries. Partly cloudy.15 mph93%29.21 "Hg2 mi
10:30 PM30 °FSnow flurries. Partly cloudy.10 mph100%29.21 "Hg2 mi
10:00 PM30 °FSnow showers. Partly cloudy.10 mph100%29.21 "Hg1 mi
9:30 PM32 °FPartly cloudy.13 mph87%29.18 "Hg4 mi
9:00 PM32 °FPartly cloudy.13 mph87%29.18 "Hg4 mi
8:30 PM32 °FPartly cloudy.10 mph87%29.18 "Hg4 mi
8:00 PM32 °FPartly cloudy.10 mph87%29.15 "Hg4 mi
7:30 PM32 °FMostly cloudy.13 mph93%29.15 "Hg4 mi
7:00 PM34 °FMostly cloudy.10 mph87%29.15 "Hg4 mi
6:30 PM34 °FLight rain. Low clouds.13 mph93%29.12 "Hg4 mi
6:00 PM34 °FLight rain. Low clouds.8 mph100%29.12 "Hg4 mi
5:30 PM36 °FLight rain. Low clouds.13 mph93%29.12 "Hg4 mi
5:00 PM36 °FLight rain. Low clouds.10 mph93%29.09 "Hg4 mi
4:30 PM36 °FLight rain. Low clouds.10 mph93%29.09 "Hg4 mi
4:00 PM36 °FLow clouds.10 mph100%29.06 "Hg4 mi
3:30 PM36 °FLow clouds.10 mph100%29.06 "Hg4 mi
3:00 PM37 °FLow clouds.10 mph93%29.03 "Hg4 mi
2:30 PM37 °FLow clouds.8 mph100%29.03 "Hg4 mi
2:00 PM39 °FLow clouds.8 mph93%29.00 "Hg4 mi
1:30 PM39 °FLow clouds.8 mph93%29.00 "Hg4 mi
1:00 PM37 °FLow clouds.8 mph100%28.97 "Hg4 mi
12:30 PM39 °FMostly cloudy.8 mph93%28.97 "Hg4 mi
12:00 PM39 °FMostly cloudy.6 mph100%28.97 "Hg4 mi
11:30 AM39 °FLight rain. Mostly cloudy.3 mph100%28.97 "Hg4 mi
11:00 AM39 °FLight rain. Mostly cloudy.3 mph100%28.94 "Hg4 mi
10:30 AM37 °FMostly cloudy.3 mph100%28.94 "Hg4 mi
10:00 AM37 °FFog.3 mph100%28.94 "Hg2 mi
9:30 AM37 °FFog.3 mph100%28.94 "Hg1 mi
9:00 AM37 °FFog.3 mph100%28.94 "Hg1 mi
8:30 AM37 °FLight rain. Fog.1 mph100%28.94 "Hg1 mi
8:00 AM37 °FLight rain. Fog.3 mph100%28.94 "Hg3 mi
7:30 AM37 °FFog.3 mph100%28.94 "Hg3 mi
7:00 AM37 °FMostly cloudy.3 mph100%28.94 "Hg4 mi
6:30 AM37 °FMostly cloudy.3 mph100%28.94 "Hg4 mi
6:00 AM37 °FFog.6 mph100%28.94 "Hg3 mi
5:30 AM37 °FLight rain. Fog.6 mph93%28.94 "Hg2 mi
5:00 AM36 °FLight rain. Fog.6 mph100%28.94 "Hg2 mi
4:30 AM37 °FFog.3 mph100%28.94 "Hg1 mi
4:00 AM39 °FFog.1 mph93%28.94 "Hg1 mi
3:30 AM39 °FFog.1 mph100%28.94 "Hg2 mi
2:30 AM39 °FFog.1 mph100%28.94 "Hg2 mi
2:00 AM37 °FSleet. Fog.1 mph100%28.94 "Hg2 mi
1:30 AM39 °FFog.1 mph93%28.97 "Hg3 mi
1:00 AM39 °FFog.1 mph100%28.97 "Hg3 mi
12:30 AM39 °FFog.1 mph100%28.97 "Hg2 mi
12:00 AM39 °FFog.3 mph100%28.97 "Hg2 mi
Weather by CustomWeather, © 2015

See weather overviewHow to use our weather pages